Weather History for Santa Fe, NM

Change the Weather History Date:

Thursday, January 2, 2014

  Actual Average Record
Temperature  
Mean Temperature 32 °F -  
Max Temperature 46 °F 0 °F 60 °F (1997)
Min Temperature 19 °F - 1 °F (2011)
Degree Days  
Heating Degree Days 32    
Moisture  
Dew Point 15 °F    
Average Humidity 56    
Maximum Humidity 88    
Minimum Humidity 23    
Precipitation  
Precipitation 0.00 in - - ()
Sea Level Pressure  
Sea Level Pressure 30.30 in    
Wind  
Wind Speed 6 mph (North)    
Max Wind Speed 16 mph    
Max Gust Speed -    
Visibility 10 miles    
Events      
Averages and records for this station are not official NWS values.
T = Trace of Precipitation, MM = Missing Value Source: NWS Daily Summary

Daily Weather History Graph

Daily Weather History Graph

Search for Another Location

Airport:

Trip Planner

Search our weather history database for the weather conditions in past years. The results will help you decide how hot, cold, wet, or windy it might be!

Date:

Astronomy

Jan. 02, 2014 Rise Set
Actual Time 7:14 AM MST 5:02 PM MST
Civil Twilight 6:45 AM MST 5:31 PM MST
Nautical Twilight 6:14 AM MST 6:03 PM MST
Astronomical Twilight 5:43 AM MST 6:34 PM MST
Moon 8:01 AM MST (1/2) 6:58 PM MST (1/2)
Length of Visible Light 10h 45m
Length of Day
9h 48m
Waxing Crescent, 3% of the Moon is Illuminated
Jan 2
Waxing Crescent
Jan 7
First Quarter
Jan 15
Full
Jan 23
Last Quarter
Jan 30
New

Hourly Weather History & Observations

Time (MST) Temp. Windchill Dew Point Humidity Pressure Visibility Wind Dir Wind Speed Gust Speed Precip Events Conditions
12:53 AM 25.0 °F - 19.9 °F 81% 30.30 in 10.0 mi Calm Calm - N/A   Clear
1:53 AM 25.0 °F 19.3 °F 21.0 °F 85% 30.30 in 10.0 mi East 4.6 mph - N/A   Clear
2:53 AM 23.0 °F 17.0 °F 19.9 °F 88% 30.31 in 10.0 mi East 4.6 mph - N/A   Clear
3:53 AM 24.1 °F 15.2 °F 19.9 °F 84% 30.30 in 10.0 mi East 8.1 mph - N/A   Clear
4:53 AM 19.0 °F 12.3 °F 16.0 °F 88% 30.35 in 10.0 mi North 4.6 mph - N/A   Clear
5:53 AM 19.0 °F 9.0 °F 15.1 °F 85% 30.38 in 10.0 mi NNE 8.1 mph - N/A   Clear
6:53 AM 19.0 °F 9.0 °F 16.0 °F 88% 30.38 in 10.0 mi North 8.1 mph - N/A   Clear
7:53 AM 21.0 °F 9.3 °F 16.0 °F 81% 30.39 in 10.0 mi North 11.5 mph - N/A   Clear
8:53 AM 26.1 °F 14.5 °F 17.1 °F 69% 30.38 in 10.0 mi North 13.8 mph - N/A   Clear
9:53 AM 30.0 °F 18.7 °F 15.1 °F 54% 30.38 in 10.0 mi North 16.1 mph - N/A   Clear
10:53 AM 35.1 °F 25.9 °F 16.0 °F 46% 30.36 in 10.0 mi North 13.8 mph - N/A   Clear
11:53 AM 39.9 °F 35.8 °F 17.1 °F 40% 30.29 in 10.0 mi NNW 5.8 mph - N/A   Clear
12:53 PM 42.1 °F 38.4 °F 19.9 °F 41% 30.27 in 10.0 mi SW 5.8 mph - N/A   Clear
1:53 PM 44.1 °F 37.7 °F 19.0 °F 37% 30.23 in 8.0 mi WSW 12.7 mph - N/A   Clear
2:53 PM 46.0 °F 43.1 °F 12.0 °F 25% 30.22 in 10.0 mi NW 5.8 mph - N/A   Clear
3:53 PM 46.9 °F - 10.9 °F 23% 30.21 in 10.0 mi West 6.9 mph - N/A   Clear
4:53 PM 41.0 °F 36.4 °F 10.9 °F 29% 30.26 in 10.0 mi WSW 6.9 mph - N/A   Clear
5:53 PM 37.9 °F 34.4 °F 12.0 °F 35% 30.28 in 10.0 mi West 4.6 mph - N/A   Clear
6:53 PM 37.0 °F - 10.0 °F 33% 30.28 in 10.0 mi Calm Calm - N/A   Clear
7:53 PM 35.1 °F - 12.0 °F 39% 30.28 in 10.0 mi Calm Calm - N/A   Clear
8:53 PM 34.0 °F - 12.0 °F 40% 30.27 in 10.0 mi Calm Calm - N/A   Clear
9:53 PM 33.1 °F - 12.0 °F 42% 30.24 in 10.0 mi Calm Calm - N/A   Clear
10:53 PM 32.0 °F 27.5 °F 12.0 °F 44% 30.22 in 10.0 mi NE 4.6 mph - N/A   Clear
11:53 PM 25.0 °F 18.1 °F 14.0 °F 63% 30.22 in 10.0 mi North 5.8 mph - N/A   Clear